Mineral Wells, TX

5:00 AM CDT on April 30, 2017 (GMT -0500)
Mineral Wells

Weather History for KMWL - January, 2014

Change the Weather History Date:

Sunday, January 5, 2014

  Actual Average Record
Temperature  
Mean Temperature 29 °F -  
Max Temperature 39 °F 56 °F 80 °F (2008)
Min Temperature 18 °F 33 °F 18 °F (2014)
Degree Days  
Heating Degree Days 36    
Moisture  
Dew Point 17 °F    
Average Humidity 58    
Maximum Humidity 73    
Minimum Humidity 39    
Precipitation  
Precipitation 0.00 in - - ()
Sea Level Pressure  
Sea Level Pressure 30.21 in    
Wind  
Wind Speed 20 mph (NNW)    
Max Wind Speed 25 mph    
Max Gust Speed 36 mph    
Visibility 10 miles    
Events      
Averages and records for this station are not official NWS values.
T = Trace of Precipitation, MM = Missing Value Source: NWS Daily Summary

Daily Weather History Graph

Daily Weather History Graph

Search for Another Location

Airport or City:

Trip Planner

Search our weather history database for the weather conditions in past years. The results will help you decide how hot, cold, wet, or windy it might be!

Date:

Astronomy

Jan. 05, 2014 Rise Set
Actual Time 7:35 AM CST 5:40 PM CST
Civil Twilight 7:08 AM CST 6:07 PM CST
Nautical Twilight 6:37 AM CST 6:38 PM CST
Astronomical Twilight 6:07 AM CST 7:07 PM CST
Moon 10:34 AM CST (1/5) 10:50 PM CST (1/5)
Length of Visible Light 10h 59m
Length of Day
10h 04m
Waxing Crescent, 25% of the Moon is Illuminated
Jan 5
Waxing Crescent
Jan 7
First Quarter
Jan 15
Full
Jan 23
Last Quarter
Jan 30
New

Hourly Weather History & Observations

Time (CST) Temp. Windchill Dew Point Humidity Pressure Visibility Wind Dir Wind Speed Gust Speed Precip Events Conditions
12:53 AM 35.1 °F 24.5 °F 27.0 °F 72% 29.86 in 10.0 mi NNW 18.4 mph 25.3 mph N/A   Clear
1:53 AM 32.0 °F 19.8 °F 24.1 °F 73% 29.89 in 10.0 mi NW 20.7 mph 33.4 mph N/A   Clear
2:22 AM 32.0 °F 19.2 °F 23.0 °F 69% 29.92 in 10.0 mi NNW 23.0 mph 35.7 mph N/A   Mostly Cloudy
2:53 AM 32.0 °F 20.1 °F 24.1 °F 73% 29.93 in 10.0 mi NW 19.6 mph 24.2 mph N/A   Overcast
3:53 AM 32.0 °F 18.6 °F 23.0 °F 69% 29.96 in 10.0 mi NW 25.3 mph 32.2 mph N/A   Overcast
4:53 AM 30.9 °F 18.1 °F 21.0 °F 67% 29.99 in 10.0 mi NNW 21.9 mph 32.2 mph N/A   Overcast
5:53 AM 30.9 °F 19.8 °F 21.0 °F 67% 30.04 in 10.0 mi NNW 16.1 mph - N/A   Overcast
6:53 AM 28.9 °F 14.8 °F 18.0 °F 64% 30.09 in 10.0 mi NNW 24.2 mph 29.9 mph N/A   Overcast
7:53 AM 27.0 °F 12.5 °F 17.1 °F 66% 30.13 in 10.0 mi NNW 23.0 mph 29.9 mph N/A   Overcast
8:41 AM 25.0 °F 10.9 °F 15.1 °F 66% 30.17 in 10.0 mi NNW 19.6 mph 33.4 mph N/A   Scattered Clouds
8:48 AM 26.6 °F 14.3 °F 15.8 °F 64% 30.18 in 10.0 mi NNW 16.1 mph 32.2 mph N/A   Mostly Cloudy
8:53 AM 26.1 °F 12.3 °F 16.0 °F 66% 30.19 in 10.0 mi NNW 19.6 mph 26.5 mph N/A   Mostly Cloudy
9:53 AM 30.0 °F 17.5 °F 17.1 °F 59% 30.22 in 10.0 mi NNW 19.6 mph 28.8 mph N/A   Mostly Cloudy
10:24 AM 30.9 °F 18.1 °F 18.0 °F 59% 30.22 in 10.0 mi NNW 21.9 mph 29.9 mph N/A   Scattered Clouds
10:53 AM 32.0 °F 19.5 °F 17.1 °F 54% 30.23 in 10.0 mi NNW 21.9 mph 26.5 mph N/A   Clear
11:53 AM 34.0 °F 22.7 °F 17.1 °F 50% 30.25 in 10.0 mi NW 19.6 mph 31.1 mph N/A   Clear
12:53 PM 36.0 °F 23.9 °F 16.0 °F 44% 30.23 in 10.0 mi NNW 25.3 mph 32.2 mph N/A   Clear
1:53 PM 37.9 °F 26.8 °F 17.1 °F 43% 30.24 in 10.0 mi NNW 24.2 mph 34.5 mph N/A   Clear
2:53 PM 39.0 °F 28.5 °F 16.0 °F 39% 30.25 in 10.0 mi North 23.0 mph 27.6 mph N/A   Clear
3:53 PM 37.0 °F 25.9 °F 16.0 °F 42% 30.27 in 10.0 mi NNW 23.0 mph 32.2 mph N/A   Clear
4:53 PM 35.1 °F 24.5 °F 16.0 °F 46% 30.31 in 10.0 mi North 18.4 mph 28.8 mph N/A   Clear
5:53 PM 32.0 °F 23.0 °F 14.0 °F 48% 30.35 in 10.0 mi North 11.5 mph - N/A   Clear
6:53 PM 30.0 °F 20.0 °F 14.0 °F 51% 30.40 in 10.0 mi North 12.7 mph - N/A   Clear
7:53 PM 28.0 °F 16.1 °F 12.0 °F 51% 30.44 in 10.0 mi North 16.1 mph 24.2 mph N/A   Clear
8:53 PM 25.0 °F 12.6 °F 10.9 °F 55% 30.48 in 10.0 mi North 15.0 mph 25.3 mph N/A   Clear
9:53 PM 21.9 °F 9.8 °F 8.1 °F 55% 30.51 in 10.0 mi North 12.7 mph - N/A   Clear
10:53 PM 19.9 °F 6.2 °F 7.0 °F 57% 30.57 in 10.0 mi NNW 15.0 mph 21.9 mph N/A   Clear
11:53 PM 18.0 °F 2.6 °F 3.9 °F 54% 30.58 in 10.0 mi North 17.3 mph 27.6 mph N/A   Clear